| time (UTC) | temp F | wind direction | speed MPH | gust MPH | rain 1hr in | rain 24hr in | rain mn in | humidity % | barometer mb |
| 20260504120210 | 73 | 13 | 9.0 | 0.0 | 0.00 | 0.00 | 0.00 | 42 | 1009.4 |
| 20260504110210 | 72 | 28 | 6.0 | 0.0 | 0.00 | 0.00 | 0.00 | 40 | 1010.1 |
| 20260504100212 | 73 | 188 | 4.0 | 0.0 | 0.00 | 0.00 | 0.00 | 36 | 1010.5 |
| 20260504080210 | 69 | 66 | 0.0 | 0.0 | 0.00 | 0.00 | 0.00 | 45 | 1011.3 |
| 20260504070211 | 60 | 182 | 0.0 | 0.0 | 0.00 | 0.00 | 0.00 | 65 | 1011.6 |
| 20260504060212 | 52 | 327 | 0.0 | 0.0 | 0.00 | 0.00 | 0.00 | 82 | 1011.8 |
| 20260504050210 | 47 | 327 | 0.0 | 0.0 | 0.00 | 0.00 | 0.00 | 78 | 1011.8 |
| 20260504043211 | 48 | 327 | 0.0 | 0.0 | 0.00 | 0.00 | 0.00 | 76 | 1011.8 |
| 20260504040211 | 49 | 327 | 0.0 | 0.0 | 0.00 | 0.00 | 0.00 | 74 | 1011.8 |
| 20260504033211 | 50 | 328 | 0.0 | 0.0 | 0.00 | 0.00 | 0.00 | 71 | 1012.2 |
| 20260504030212 | 51 | 328 | 0.0 | 0.0 | 0.00 | 0.00 | 0.00 | 71 | 1012.1 |
| 20260504023211 | 52 | 328 | 0.0 | 0.0 | 0.00 | 0.00 | 0.00 | 70 | 1012.2 |
| 20260504020212 | 52 | 28 | 4.0 | 0.0 | 0.00 | 0.00 | 0.00 | 70 | 1012.1 |
| 20260504013211 | 52 | 209 | 0.0 | 0.0 | 0.00 | 0.00 | 0.00 | 69 | 1012.0 |
| 20260504010211 | 53 | 207 | 0.0 | 0.0 | 0.00 | 0.00 | 0.00 | 68 | 1011.8 |
| 20260504003210 | 53 | 211 | 3.0 | 0.0 | 0.00 | 0.00 | 0.00 | 65 | 1012.2 |
| 20260504000208 | 54 | 216 | 3.0 | 0.0 | 0.00 | 0.00 | 0.00 | 64 | 1012.4 |
| 20260503233209 | 55 | 229 | 3.0 | 0.0 | 0.00 | 0.00 | 0.00 | 63 | 1012.5 |
| 20260503230209 | 56 | 262 | 2.0 | 0.0 | 0.00 | 0.00 | 0.00 | 61 | 1012.6 |
| 20260503223210 | 57 | 263 | 0.0 | 0.0 | 0.00 | 0.00 | 0.00 | 60 | 1012.7 |
| 20260503213210 | 58 | 295 | 0.0 | 0.0 | 0.00 | 0.00 | 0.00 | 53 | 1012.2 |
| 20260503210211 | 60 | 311 | 2.0 | 0.0 | 0.00 | 0.00 | 0.00 | 50 | 1012.0 |
| 20260503203209 | 61 | 304 | 5.0 | 0.0 | 0.00 | 0.00 | 0.00 | 48 | 1011.9 |
| 20260503200211 | 62 | 303 | 5.0 | 0.0 | 0.00 | 0.00 | 0.00 | 45 | 1011.3 |
| 20260503193210 | 64 | 311 | 5.0 | 0.0 | 0.00 | 0.00 | 0.00 | 43 | 1011.2 |
| 20260503190210 | 65 | 311 | 9.0 | 0.0 | 0.00 | 0.00 | 0.00 | 40 | 1010.9 |
| 20260503183209 | 67 | 295 | 14.0 | 0.0 | 0.00 | 0.00 | 0.00 | 38 | 1010.4 |
| 20260503180210 | 70 | 331 | 10.0 | 0.0 | 0.00 | 0.00 | 0.00 | 44 | 1009.7 |
| 20260503173209 | 72 | 28 | 9.0 | 0.0 | 0.00 | 0.00 | 0.00 | 41 | 1009.4 |
| 20260503170211 | 74 | 355 | 6.0 | 0.0 | 0.00 | 0.00 | 0.00 | 39 | 1009.4 |
| 20260503160211 | 75 | 300 | 6.0 | 0.0 | 0.00 | 0.00 | 0.00 | 30 | 1009.1 |
| 20260503150209 | 80 | 232 | 9.0 | 0.0 | 0.00 | 0.00 | 0.00 | 23 | 1009.4 |
| 20260503140210 | 82 | 315 | 8.0 | 0.0 | 0.00 | 0.00 | 0.00 | 21 | 1009.7 |
| 20260503130210 | 78 | 311 | 12.0 | 0.0 | 0.00 | 0.00 | 0.00 | 27 | 1010.5 |